TimeEST,TemperatureF,Dew PointF,Humidity,Sea Level PressureIn,VisibilityMPH,Wind Direction,Wind SpeedMPH,Gust SpeedMPH,PrecipitationIn,Events,Conditions,WindDirDegrees,DateUTC
12:15 AM,32.0,17.6,55,29.87,10.0,West,12.7,23.0,N/A,,Overcast,280,2013-11-28 05:15:00
12:35 AM,32.0,17.6,55,29.88,10.0,West,10.4,23.0,N/A,,Overcast,270,2013-11-28 05:35:00
12:55 AM,32.0,17.6,55,29.89,10.0,West,13.8,21.9,N/A,,Mostly Cloudy,280,2013-11-28 05:55:00
1:15 AM,30.2,15.8,55,29.91,10.0,West,11.5,19.6,N/A,,Scattered Clouds,270,2013-11-28 06:15:00
1:35 AM,30.2,15.8,55,29.92,10.0,West,10.4,20.7,N/A,,Scattered Clouds,280,2013-11-28 06:35:00
1:55 AM,30.2,14.0,51,29.94,10.0,WNW,13.8,23.0,N/A,,Mostly Cloudy,290,2013-11-28 06:55:00
2:15 AM,30.2,14.0,51,29.96,10.0,West,15.0,26.5,N/A,,Scattered Clouds,270,2013-11-28 07:15:00
2:35 AM,30.2,14.0,51,29.98,10.0,West,10.4,19.6,N/A,,Scattered Clouds,270,2013-11-28 07:35:00
2:55 AM,30.2,15.8,55,29.99,10.0,West,9.2,16.1,N/A,,Mostly Cloudy,280,2013-11-28 07:55:00
3:15 AM,30.2,14.0,51,30.01,10.0,West,15.0,21.9,N/A,,Mostly Cloudy,280,2013-11-28 08:15:00
3:35 AM,30.2,14.0,51,30.03,10.0,West,17.3,21.9,N/A,,Mostly Cloudy,280,2013-11-28 08:35:00
3:55 AM,30.2,14.0,51,30.05,10.0,West,12.7,19.6,N/A,,Mostly Cloudy,280,2013-11-28 08:55:00
4:15 AM,30.2,14.0,51,30.06,10.0,West,10.4,19.6,N/A,,Scattered Clouds,280,2013-11-28 09:15:00
4:35 AM,30.2,14.0,51,30.07,10.0,West,13.8,24.2,N/A,,Clear,280,2013-11-28 09:35:00
4:55 AM,30.2,14.0,51,30.09,10.0,West,10.4,21.9,N/A,,Scattered Clouds,280,2013-11-28 09:55:00
5:15 AM,30.2,14.0,51,30.09,10.0,West,16.1,24.2,N/A,,Mostly Cloudy,280,2013-11-28 10:15:00
5:35 AM,30.2,14.0,51,30.11,10.0,WNW,10.4,16.1,N/A,,Mostly Cloudy,290,2013-11-28 10:35:00
5:55 AM,28.4,14.0,55,30.12,10.0,WNW,11.5,17.3,N/A,,Mostly Cloudy,290,2013-11-28 10:55:00
6:15 AM,30.2,14.0,51,30.14,10.0,WNW,8.1,18.4,N/A,,Scattered Clouds,290,2013-11-28 11:15:00
6:35 AM,30.2,14.0,51,30.16,10.0,WNW,10.4,19.6,N/A,,Scattered Clouds,300,2013-11-28 11:35:00
6:55 AM,30.2,14.0,51,30.18,10.0,WNW,11.5,17.3,N/A,,Clear,290,2013-11-28 11:55:00
7:15 AM,30.2,14.0,51,30.20,10.0,WNW,10.4,-,N/A,,Clear,290,2013-11-28 12:15:00
7:35 AM,30.2,12.2,47,30.21,10.0,WNW,9.2,-,N/A,,Clear,300,2013-11-28 12:35:00
7:55 AM,30.2,12.2,47,30.23,10.0,West,13.8,21.9,N/A,,Clear,280,2013-11-28 12:55:00
8:15 AM,30.2,12.2,47,30.24,10.0,WNW,13.8,20.7,N/A,,Clear,300,2013-11-28 13:15:00
8:35 AM,30.2,12.2,47,30.25,10.0,WNW,9.2,21.9,N/A,,Clear,300,2013-11-28 13:35:00
8:55 AM,32.0,12.2,44,30.27,10.0,NW,16.1,23.0,N/A,,Clear,310,2013-11-28 13:55:00
9:15 AM,32.0,12.2,44,30.27,10.0,WNW,10.4,19.6,N/A,,Clear,290,2013-11-28 14:15:00
9:35 AM,32.0,12.2,44,30.28,10.0,WNW,12.7,24.2,N/A,,Clear,300,2013-11-28 14:35:00
9:55 AM,32.0,10.4,41,30.29,10.0,WNW,13.8,20.7,N/A,,Clear,300,2013-11-28 14:55:00
10:15 AM,32.0,12.2,44,30.29,10.0,NW,9.2,23.0,N/A,,Clear,310,2013-11-28 15:15:00
10:35 AM,32.0,10.4,41,30.30,10.0,WNW,15.0,20.7,N/A,,Scattered Clouds,290,2013-11-28 15:35:00
10:55 AM,33.8,12.2,41,30.30,10.0,WNW,16.1,24.2,N/A,,Scattered Clouds,300,2013-11-28 15:55:00
11:15 AM,32.0,12.2,44,30.30,10.0,WNW,11.5,19.6,N/A,,Scattered Clouds,300,2013-11-28 16:15:00
11:35 AM,33.8,10.4,38,30.30,10.0,WNW,10.4,25.3,N/A,,Scattered Clouds,290,2013-11-28 16:35:00
11:55 AM,33.8,12.2,41,30.29,10.0,NW,11.5,20.7,N/A,,Clear,310,2013-11-28 16:55:00
12:15 PM,33.8,10.4,38,30.30,10.0,WNW,13.8,21.9,N/A,,Clear,290,2013-11-28 17:15:00
12:35 PM,33.8,10.4,38,30.30,10.0,WNW,16.1,21.9,N/A,,Clear,300,2013-11-28 17:35:00
12:55 PM,33.8,10.4,38,30.30,10.0,WNW,13.8,20.7,N/A,,Clear,290,2013-11-28 17:55:00
1:15 PM,33.8,10.4,38,30.30,10.0,WNW,16.1,21.9,N/A,,Clear,300,2013-11-28 18:15:00
1:35 PM,35.6,12.2,38,30.31,10.0,NW,10.4,16.1,N/A,,Clear,310,2013-11-28 18:35:00
1:55 PM,33.8,12.2,41,30.31,10.0,NW,8.1,-,N/A,,Scattered Clouds,310,2013-11-28 18:55:00
2:15 PM,33.8,10.4,38,30.31,10.0,WNW,9.2,16.1,N/A,,Scattered Clouds,300,2013-11-28 19:15:00
2:35 PM,33.8,10.4,38,30.32,10.0,WNW,6.9,17.3,N/A,,Scattered Clouds,290,2013-11-28 19:35:00
2:55 PM,33.8,12.2,41,30.32,10.0,NW,10.4,-,N/A,,Clear,310,2013-11-28 19:55:00
3:15 PM,33.8,12.2,41,30.32,10.0,NW,6.9,-,N/A,,Clear,320,2013-11-28 20:15:00
3:35 PM,32.0,12.2,44,30.34,10.0,WNW,8.1,-,N/A,,Mostly Cloudy,290,2013-11-28 20:35:00
3:55 PM,32.0,12.2,44,30.35,10.0,West,6.9,-,N/A,,Scattered Clouds,280,2013-11-28 20:55:00
4:15 PM,32.0,12.2,44,30.35,10.0,WNW,5.8,-,N/A,,Clear,300,2013-11-28 21:15:00
4:35 PM,32.0,14.0,48,30.37,10.0,West,6.9,-,N/A,,Clear,280,2013-11-28 21:35:00
4:55 PM,32.0,14.0,48,30.37,10.0,West,4.6,-,N/A,,Clear,270,2013-11-28 21:55:00
5:15 PM,32.0,15.8,51,30.38,10.0,West,3.5,-,N/A,,Clear,270,2013-11-28 22:15:00
5:35 PM,30.2,15.8,55,30.40,10.0,West,3.5,-,N/A,,Clear,260,2013-11-28 22:35:00
5:55 PM,30.2,15.8,55,30.40,10.0,West,4.6,-,N/A,,Scattered Clouds,270,2013-11-28 22:55:00
6:15 PM,30.2,17.6,60,30.41,10.0,West,4.6,-,N/A,,Mostly Cloudy,280,2013-11-28 23:15:00
6:35 PM,30.2,17.6,60,30.42,10.0,Calm,Calm,-,N/A,,Overcast,0,2013-11-28 23:35:00
6:55 PM,30.2,17.6,60,30.42,10.0,West,3.5,-,N/A,,Overcast,270,2013-11-28 23:55:00
7:15 PM,30.2,17.6,60,30.43,10.0,South,4.6,-,N/A,,Overcast,190,2013-11-29 00:15:00
7:35 PM,30.2,17.6,60,30.43,10.0,SSW,4.6,-,N/A,,Overcast,200,2013-11-29 00:35:00
7:55 PM,30.2,19.4,64,30.44,10.0,SSW,4.6,-,N/A,,Mostly Cloudy,200,2013-11-29 00:55:00
8:15 PM,30.2,19.4,64,30.45,10.0,SSW,3.5,-,N/A,,Mostly Cloudy,210,2013-11-29 01:15:00
8:35 PM,32.0,19.4,60,30.46,10.0,WSW,4.6,-,N/A,,Mostly Cloudy,240,2013-11-29 01:35:00
8:55 PM,32.0,19.4,60,30.46,10.0,WSW,3.5,-,N/A,,Mostly Cloudy,250,2013-11-29 01:55:00
9:15 PM,32.0,17.6,55,30.46,10.0,Calm,Calm,-,N/A,,Overcast,0,2013-11-29 02:15:00
9:35 PM,32.0,17.6,55,30.47,10.0,West,3.5,-,N/A,,Overcast,270,2013-11-29 02:35:00
9:55 PM,32.0,17.6,55,30.47,10.0,West,3.5,-,N/A,,Overcast,260,2013-11-29 02:55:00
10:15 PM,32.0,17.6,55,30.47,10.0,Calm,Calm,-,N/A,,Overcast,0,2013-11-29 03:15:00
10:35 PM,32.0,17.6,55,30.47,10.0,Calm,Calm,-,N/A,,Overcast,0,2013-11-29 03:35:00
10:55 PM,32.0,17.6,55,30.47,10.0,SW,3.5,-,N/A,,Overcast,220,2013-11-29 03:55:00
11:15 PM,32.0,19.4,60,30.47,10.0,SW,3.5,-,N/A,,Overcast,220,2013-11-29 04:15:00
11:35 PM,32.0,19.4,60,30.48,10.0,Calm,Calm,-,N/A,,Overcast,0,2013-11-29 04:35:00
11:55 PM,30.2,19.4,64,30.47,10.0,SW,3.5,-,N/A,,Overcast,220,2013-11-29 04:55:00